Year,Month,Day,Hour,Minute,Value (Times are PST for temperature in C)
2017,05,24,00,00,7.70
2017,05,24,00,01,7.70
2017,05,24,00,02,7.60
2017,05,24,00,03,7.50
2017,05,24,00,04,7.50
2017,05,24,00,05,7.40
2017,05,24,00,06,7.40
2017,05,24,00,07,7.30
2017,05,24,00,08,7.30
2017,05,24,00,09,7.20
2017,05,24,00,10,7.20
2017,05,24,00,11,7.20
2017,05,24,00,12,7.20
2017,05,24,00,13,7.20
2017,05,24,00,14,7.20
2017,05,24,00,15,7.20
2017,05,24,00,16,7.20
2017,05,24,00,17,7.20
2017,05,24,00,18,7.20
2017,05,24,00,19,7.20
2017,05,24,00,20,7.30
2017,05,24,00,21,7.30
2017,05,24,00,22,7.20
2017,05,24,00,23,7.20
2017,05,24,00,24,7.20
2017,05,24,00,25,7.20
2017,05,24,00,26,7.20
2017,05,24,00,27,7.10
2017,05,24,00,28,7.10
2017,05,24,00,29,7.10
2017,05,24,00,30,7.00
2017,05,24,00,31,7.00
2017,05,24,00,32,7.00
2017,05,24,00,33,6.90
2017,05,24,00,34,6.90
2017,05,24,00,35,6.90
2017,05,24,00,36,6.80
2017,05,24,00,37,6.80
2017,05,24,00,38,6.80
2017,05,24,00,39,6.70
2017,05,24,00,40,6.70
2017,05,24,00,41,6.70
2017,05,24,00,42,6.70
2017,05,24,00,43,6.60
2017,05,24,00,44,6.60
2017,05,24,00,45,6.60
2017,05,24,00,46,6.50
2017,05,24,00,47,6.50
2017,05,24,00,48,6.50
2017,05,24,00,49,6.50
2017,05,24,00,50,6.50
2017,05,24,00,51,6.50
2017,05,24,00,52,6.50
2017,05,24,00,53,6.40
2017,05,24,00,54,6.40
2017,05,24,00,55,6.40
2017,05,24,00,56,6.40
2017,05,24,00,57,6.40
2017,05,24,00,58,6.40
2017,05,24,00,59,6.30
2017,05,24,01,00,6.30
2017,05,24,01,01,6.20
2017,05,24,01,02,6.20
2017,05,24,01,03,6.20
2017,05,24,01,04,6.10
2017,05,24,01,05,6.10
2017,05,24,01,06,6.10
2017,05,24,01,07,6.00
2017,05,24,01,08,6.00
2017,05,24,01,09,5.90
2017,05,24,01,10,5.90
2017,05,24,01,11,5.90
2017,05,24,01,12,5.80
2017,05,24,01,13,5.80
2017,05,24,01,14,5.80
2017,05,24,01,15,5.80
2017,05,24,01,16,5.70
2017,05,24,01,17,5.70
2017,05,24,01,18,5.70
2017,05,24,01,19,5.70
2017,05,24,01,20,5.60
2017,05,24,01,21,5.60
2017,05,24,01,22,5.60
2017,05,24,01,23,5.60
2017,05,24,01,24,5.50
2017,05,24,01,25,5.50
2017,05,24,01,26,5.50
2017,05,24,01,27,5.50
2017,05,24,01,28,5.50
2017,05,24,01,29,5.40
2017,05,24,01,30,5.40
2017,05,24,01,31,5.40
2017,05,24,01,32,5.50
2017,05,24,01,33,5.50
2017,05,24,01,34,5.50
2017,05,24,01,35,5.60
2017,05,24,01,36,5.60
2017,05,24,01,37,5.60
2017,05,24,01,38,5.60
2017,05,24,01,39,5.60
2017,05,24,01,40,5.60
2017,05,24,01,41,5.60
2017,05,24,01,42,5.70
2017,05,24,01,43,5.60
2017,05,24,01,44,5.70
2017,05,24,01,45,5.70
2017,05,24,01,46,5.60
2017,05,24,01,47,5.70
2017,05,24,01,48,5.70
2017,05,24,01,49,5.70
2017,05,24,01,50,5.70
2017,05,24,01,51,5.70
2017,05,24,01,52,5.60
2017,05,24,01,53,5.60
2017,05,24,01,54,5.60
2017,05,24,01,55,5.60
2017,05,24,01,56,5.60
2017,05,24,01,57,5.60
2017,05,24,01,58,5.50
2017,05,24,01,59,5.50
2017,05,24,02,00,5.50
2017,05,24,02,01,5.60
2017,05,24,02,02,5.60
2017,05,24,02,03,5.60
2017,05,24,02,04,5.50
2017,05,24,02,05,5.50
2017,05,24,02,06,5.40
2017,05,24,02,07,5.40
2017,05,24,02,08,5.40
2017,05,24,02,09,5.40
2017,05,24,02,10,5.40
2017,05,24,02,11,5.50
2017,05,24,02,12,5.50
2017,05,24,02,13,5.50
2017,05,24,02,14,5.50
2017,05,24,02,15,5.50
2017,05,24,02,16,5.40
2017,05,24,02,17,5.40
2017,05,24,02,18,5.40
2017,05,24,02,19,5.40
2017,05,24,02,20,5.30
2017,05,24,02,21,5.30
2017,05,24,02,22,5.30
2017,05,24,02,23,5.30
2017,05,24,02,24,5.40
2017,05,24,02,25,5.40
2017,05,24,02,26,5.40
2017,05,24,02,27,5.40
2017,05,24,02,28,5.30
2017,05,24,02,29,5.30
2017,05,24,02,30,5.30
2017,05,24,02,31,5.20
2017,05,24,02,32,5.20
2017,05,24,02,33,5.20
2017,05,24,02,34,5.20
2017,05,24,02,35,5.20
2017,05,24,02,36,5.10
2017,05,24,02,37,5.10
2017,05,24,02,38,5.10
2017,05,24,02,39,5.10
2017,05,24,02,40,5.10
2017,05,24,02,41,5.10
2017,05,24,02,42,5.10
2017,05,24,02,43,5.10
2017,05,24,02,44,5.10
2017,05,24,02,45,5.10
2017,05,24,02,46,5.10
2017,05,24,02,47,5.00
2017,05,24,02,48,5.00
2017,05,24,02,49,4.90
2017,05,24,02,50,4.90
2017,05,24,02,51,4.90
2017,05,24,02,52,4.80
2017,05,24,02,53,4.80
2017,05,24,02,54,4.80
2017,05,24,02,55,4.80
2017,05,24,02,56,4.80
2017,05,24,02,57,4.80
2017,05,24,02,58,4.80
2017,05,24,02,59,4.80
2017,05,24,03,00,4.80
2017,05,24,03,01,4.80
2017,05,24,03,02,4.80
2017,05,24,03,03,4.80
2017,05,24,03,04,4.80
2017,05,24,03,05,4.80
2017,05,24,03,06,4.80
2017,05,24,03,07,4.80
2017,05,24,03,08,4.80
2017,05,24,03,09,4.80
2017,05,24,03,10,4.80
2017,05,24,03,11,4.80
2017,05,24,03,12,4.80
2017,05,24,03,13,4.90
2017,05,24,03,14,4.90
2017,05,24,03,15,5.00
2017,05,24,03,16,5.00
2017,05,24,03,17,5.10
2017,05,24,03,18,5.20
2017,05,24,03,19,5.20
2017,05,24,03,20,5.30
2017,05,24,03,21,5.30
2017,05,24,03,22,5.40
2017,05,24,03,23,5.50
2017,05,24,03,24,5.50
2017,05,24,03,25,5.60
2017,05,24,03,26,5.60
2017,05,24,03,27,5.60
2017,05,24,03,28,5.60
2017,05,24,03,29,5.60
2017,05,24,03,30,5.50
2017,05,24,03,31,5.50
2017,05,24,03,32,5.40
2017,05,24,03,33,5.30
2017,05,24,03,34,5.30
2017,05,24,03,35,5.30
2017,05,24,03,36,5.20
2017,05,24,03,37,5.20
2017,05,24,03,38,5.10
2017,05,24,03,39,5.10
2017,05,24,03,40,5.00
2017,05,24,03,41,5.00
2017,05,24,03,42,5.00
2017,05,24,03,43,5.00
2017,05,24,03,44,4.90
2017,05,24,03,45,4.90
2017,05,24,03,46,4.80
2017,05,24,03,47,4.80
2017,05,24,03,48,4.80
2017,05,24,03,49,4.80
2017,05,24,03,50,4.70
2017,05,24,03,51,4.70
2017,05,24,03,52,4.70
2017,05,24,03,53,4.70
2017,05,24,03,54,4.60
2017,05,24,03,55,4.60
2017,05,24,03,56,4.60
2017,05,24,03,57,4.50
2017,05,24,03,58,4.50
2017,05,24,03,59,4.40
2017,05,24,04,00,4.40
2017,05,24,04,01,4.40
2017,05,24,04,02,4.30
2017,05,24,04,03,4.30
2017,05,24,04,04,4.30
2017,05,24,04,05,4.20
2017,05,24,04,06,4.20
2017,05,24,04,07,4.20
2017,05,24,04,08,4.20
2017,05,24,04,09,4.20
2017,05,24,04,10,4.10
2017,05,24,04,11,4.20
2017,05,24,04,12,4.20
2017,05,24,04,13,4.20
2017,05,24,04,14,4.20
2017,05,24,04,15,4.20
2017,05,24,04,16,4.20
2017,05,24,04,17,4.30
2017,05,24,04,18,4.30
2017,05,24,04,19,4.30
2017,05,24,04,20,4.30
2017,05,24,04,21,4.30
2017,05,24,04,22,4.40
2017,05,24,04,23,4.40
2017,05,24,04,24,4.40
2017,05,24,04,25,4.40
2017,05,24,04,26,4.50
2017,05,24,04,27,4.50
2017,05,24,04,28,4.50
2017,05,24,04,29,4.50
2017,05,24,04,30,4.50
2017,05,24,04,31,4.50
2017,05,24,04,32,4.50
2017,05,24,04,33,4.60
2017,05,24,04,34,4.60
2017,05,24,04,35,4.60
2017,05,24,04,36,4.60
2017,05,24,04,37,4.60
2017,05,24,04,38,4.60
2017,05,24,04,39,4.60
2017,05,24,04,40,4.60
2017,05,24,04,41,4.60
2017,05,24,04,42,4.60
2017,05,24,04,43,4.60
2017,05,24,04,44,4.70
2017,05,24,04,45,4.60
2017,05,24,04,46,4.60
2017,05,24,04,47,4.60
2017,05,24,04,48,4.70
2017,05,24,04,49,4.70
2017,05,24,04,50,4.70
2017,05,24,04,51,4.80
2017,05,24,04,52,4.80
2017,05,24,04,53,4.80
2017,05,24,04,54,4.90
2017,05,24,04,55,4.90
2017,05,24,04,56,4.90
2017,05,24,04,57,4.80
2017,05,24,04,58,4.80
2017,05,24,04,59,4.80
2017,05,24,05,00,4.80
2017,05,24,05,01,4.80
2017,05,24,05,02,4.80
2017,05,24,05,03,4.70
2017,05,24,05,04,4.80
2017,05,24,05,05,4.80
2017,05,24,05,06,4.80
2017,05,24,05,07,4.80
2017,05,24,05,08,4.80
2017,05,24,05,09,4.90
2017,05,24,05,10,4.90
2017,05,24,05,11,4.90
2017,05,24,05,12,5.00
2017,05,24,05,13,5.10
2017,05,24,05,14,5.20
2017,05,24,05,15,5.20
2017,05,24,05,16,5.30
2017,05,24,05,17,5.30
2017,05,24,05,18,5.30
2017,05,24,05,19,5.40
2017,05,24,05,20,5.40
2017,05,24,05,21,5.50
2017,05,24,05,22,5.50
2017,05,24,05,23,5.60
2017,05,24,05,24,5.70
2017,05,24,05,25,5.80
2017,05,24,05,26,5.90
2017,05,24,05,27,6.00
2017,05,24,05,28,6.10
2017,05,24,05,29,6.10
2017,05,24,05,30,6.20
2017,05,24,05,31,6.20
2017,05,24,05,32,6.20
2017,05,24,05,33,6.20
2017,05,24,05,34,6.30
2017,05,24,05,35,6.30
2017,05,24,05,36,6.30
2017,05,24,05,37,6.30
2017,05,24,05,38,6.30
2017,05,24,05,39,6.30
2017,05,24,05,40,6.40
2017,05,24,05,41,6.40
2017,05,24,05,42,6.30
2017,05,24,05,43,6.30
2017,05,24,05,44,6.30
2017,05,24,05,45,6.30
2017,05,24,05,46,6.30
2017,05,24,05,47,6.40
2017,05,24,05,48,6.40
2017,05,24,05,49,6.40
2017,05,24,05,50,6.40
2017,05,24,05,51,6.40
2017,05,24,05,52,6.40
2017,05,24,05,53,6.50
2017,05,24,05,54,6.60
2017,05,24,05,55,6.60
2017,05,24,05,56,6.70
2017,05,24,05,57,6.70
2017,05,24,05,58,6.80
2017,05,24,05,59,6.80
2017,05,24,06,00,6.80
2017,05,24,06,01,6.80
2017,05,24,06,02,6.80
2017,05,24,06,03,6.80
2017,05,24,06,04,6.80
2017,05,24,06,05,6.80
2017,05,24,06,06,6.80
2017,05,24,06,07,6.80
2017,05,24,06,08,6.70
2017,05,24,06,09,6.70
2017,05,24,06,10,6.80
2017,05,24,06,11,6.80
2017,05,24,06,12,6.70
2017,05,24,06,13,6.70
2017,05,24,06,14,6.70
2017,05,24,06,15,6.70
2017,05,24,06,16,6.70
2017,05,24,06,17,6.70
2017,05,24,06,18,6.70
2017,05,24,06,19,6.70
2017,05,24,06,20,6.60
2017,05,24,06,21,6.60
2017,05,24,06,22,6.60
2017,05,24,06,23,6.60
2017,05,24,06,24,6.60
2017,05,24,06,25,6.60
2017,05,24,06,26,6.50
2017,05,24,06,27,6.60
2017,05,24,06,28,6.60
2017,05,24,06,29,6.60
2017,05,24,06,30,6.60
2017,05,24,06,31,6.60
2017,05,24,06,32,6.60
2017,05,24,06,33,6.70
2017,05,24,06,34,6.70
2017,05,24,06,35,6.70
2017,05,24,06,36,6.70
2017,05,24,06,37,6.70
2017,05,24,06,38,6.70
2017,05,24,06,39,6.70
2017,05,24,06,40,6.70
2017,05,24,06,41,6.70
2017,05,24,06,42,6.70
2017,05,24,06,43,6.70
2017,05,24,06,44,6.70
2017,05,24,06,45,6.80
2017,05,24,06,46,6.80
2017,05,24,06,47,6.80
2017,05,24,06,48,6.80
2017,05,24,06,49,6.80
2017,05,24,06,50,6.90
2017,05,24,06,51,6.90
2017,05,24,06,52,7.00
2017,05,24,06,53,7.00
2017,05,24,06,54,7.10
2017,05,24,06,55,7.10
2017,05,24,06,56,7.20
2017,05,24,06,57,7.20
2017,05,24,06,58,7.20
2017,05,24,06,59,7.20
2017,05,24,07,00,7.30
2017,05,24,07,01,7.30
2017,05,24,07,02,7.30
2017,05,24,07,03,7.30
2017,05,24,07,04,7.40
2017,05,24,07,05,7.40
2017,05,24,07,06,7.40
2017,05,24,07,07,7.50
2017,05,24,07,08,7.50
2017,05,24,07,09,7.50
2017,05,24,07,10,7.60
2017,05,24,07,11,7.60
2017,05,24,07,12,7.60
2017,05,24,07,13,7.70
2017,05,24,07,14,7.70
2017,05,24,07,15,7.80
2017,05,24,07,16,7.80
2017,05,24,07,17,7.90
2017,05,24,07,18,7.90
2017,05,24,07,19,7.90
2017,05,24,07,20,7.90
2017,05,24,07,21,8.00
2017,05,24,07,22,8.00
2017,05,24,07,23,8.10
2017,05,24,07,24,8.10
2017,05,24,07,25,8.10
2017,05,24,07,26,8.10
2017,05,24,07,27,8.20
2017,05,24,07,28,8.20
2017,05,24,07,29,8.20
2017,05,24,07,30,8.30
2017,05,24,07,31,8.30
2017,05,24,07,32,8.30
2017,05,24,07,33,8.30
2017,05,24,07,34,8.30
2017,05,24,07,35,8.40
2017,05,24,07,36,8.40
2017,05,24,07,37,8.40
2017,05,24,07,38,8.40
2017,05,24,07,39,8.40
2017,05,24,07,40,8.50
2017,05,24,07,41,8.50
2017,05,24,07,42,8.50
2017,05,24,07,43,8.60
2017,05,24,07,44,8.60
2017,05,24,07,45,8.60
2017,05,24,07,46,8.60
2017,05,24,07,47,8.60
2017,05,24,07,48,8.70
2017,05,24,07,49,8.70
2017,05,24,07,50,8.70
2017,05,24,07,51,8.70
2017,05,24,07,52,8.70
2017,05,24,07,53,8.70
2017,05,24,07,54,8.70
2017,05,24,07,55,8.70
2017,05,24,07,56,8.70
2017,05,24,07,57,8.80
2017,05,24,07,58,8.80
2017,05,24,07,59,8.80
2017,05,24,08,00,8.80
2017,05,24,08,01,8.90
2017,05,24,08,02,8.90
2017,05,24,08,03,8.90
2017,05,24,08,04,9.00
2017,05,24,08,05,9.10
2017,05,24,08,06,9.10
2017,05,24,08,07,9.10
2017,05,24,08,08,9.10
2017,05,24,08,09,9.10
2017,05,24,08,10,9.20
2017,05,24,08,11,9.20
2017,05,24,08,12,9.20
2017,05,24,08,13,9.20
2017,05,24,08,14,9.30
2017,05,24,08,15,9.30
2017,05,24,08,16,9.30
2017,05,24,08,17,9.30
2017,05,24,08,18,9.40
2017,05,24,08,19,9.40
2017,05,24,08,20,9.40
2017,05,24,08,21,9.40
2017,05,24,08,22,9.40
2017,05,24,08,23,9.40
2017,05,24,08,24,9.50
2017,05,24,08,25,9.50
2017,05,24,08,26,9.50
2017,05,24,08,27,9.60
2017,05,24,08,28,9.60
2017,05,24,08,29,9.60
2017,05,24,08,30,9.60
2017,05,24,08,31,9.60
2017,05,24,08,32,9.60
2017,05,24,08,33,9.70
2017,05,24,08,34,9.70
2017,05,24,08,35,9.70
2017,05,24,08,36,9.70
2017,05,24,08,37,9.80
2017,05,24,08,38,9.80
2017,05,24,08,39,9.80
2017,05,24,08,40,9.90
2017,05,24,08,41,9.90
2017,05,24,08,42,10.00
2017,05,24,08,43,10.00
2017,05,24,08,44,10.00
2017,05,24,08,45,10.10
2017,05,24,08,46,10.10
2017,05,24,08,47,10.20
2017,05,24,08,48,10.30
2017,05,24,08,49,10.30
2017,05,24,08,50,10.40
2017,05,24,08,51,10.50
2017,05,24,08,52,10.50
2017,05,24,08,53,10.60
2017,05,24,08,54,10.70
2017,05,24,08,55,10.80
2017,05,24,08,56,11.00
2017,05,24,08,57,11.10
2017,05,24,08,58,11.30
2017,05,24,08,59,11.40
2017,05,24,09,00,11.50
2017,05,24,09,01,11.70
2017,05,24,09,02,11.80
2017,05,24,09,03,12.00
2017,05,24,09,04,12.10
2017,05,24,09,05,12.20
2017,05,24,09,06,12.20
2017,05,24,09,07,12.30
2017,05,24,09,08,12.40
2017,05,24,09,09,12.40
2017,05,24,09,10,12.50
2017,05,24,09,11,12.60
2017,05,24,09,12,12.60
2017,05,24,09,13,12.70
2017,05,24,09,14,12.70
2017,05,24,09,15,12.80
2017,05,24,09,16,12.90
2017,05,24,09,17,12.90
2017,05,24,09,18,12.90
2017,05,24,09,19,12.90
2017,05,24,09,20,12.90
2017,05,24,09,21,12.90
2017,05,24,09,22,13.00
2017,05,24,09,23,13.00
2017,05,24,09,24,13.10
2017,05,24,09,25,13.20
2017,05,24,09,26,13.20
2017,05,24,09,27,13.30
2017,05,24,09,28,13.20
2017,05,24,09,29,13.20
2017,05,24,09,30,13.30
2017,05,24,09,31,13.30
2017,05,24,09,32,13.40
2017,05,24,09,33,13.50
2017,05,24,09,34,13.60
2017,05,24,09,35,13.70
2017,05,24,09,36,13.70
2017,05,24,09,37,13.80
2017,05,24,09,38,13.80
2017,05,24,09,39,13.80
2017,05,24,09,40,13.70
2017,05,24,09,41,13.50
2017,05,24,09,42,13.50
2017,05,24,09,43,13.40
2017,05,24,09,44,13.40
2017,05,24,09,45,13.30
2017,05,24,09,46,13.30
2017,05,24,09,47,13.20
2017,05,24,09,48,13.20
2017,05,24,09,49,13.20
2017,05,24,09,50,13.20
2017,05,24,09,51,13.30
2017,05,24,09,52,13.30
2017,05,24,09,53,13.40
2017,05,24,09,54,13.50
2017,05,24,09,55,13.50
2017,05,24,09,56,13.60
2017,05,24,09,57,13.70
2017,05,24,09,58,13.70
2017,05,24,09,59,13.80
2017,05,24,10,00,13.80
2017,05,24,10,01,13.90
2017,05,24,10,02,13.90
2017,05,24,10,03,14.00
2017,05,24,10,04,14.00
2017,05,24,10,05,13.90
2017,05,24,10,06,13.80
2017,05,24,10,07,13.80
2017,05,24,10,08,13.80
2017,05,24,10,09,13.70
2017,05,24,10,10,13.70
2017,05,24,10,11,13.80
2017,05,24,10,12,13.80
2017,05,24,10,13,13.90
2017,05,24,10,14,13.90
2017,05,24,10,15,14.00
2017,05,24,10,16,14.10
2017,05,24,10,17,14.20
2017,05,24,10,18,14.30
2017,05,24,10,19,14.30
2017,05,24,10,20,14.40
2017,05,24,10,21,14.50
2017,05,24,10,22,14.50
2017,05,24,10,23,14.60
2017,05,24,10,24,14.60
2017,05,24,10,25,14.70
2017,05,24,10,26,14.70
2017,05,24,10,27,14.70
2017,05,24,10,28,14.70
2017,05,24,10,29,14.70
2017,05,24,10,30,14.70
2017,05,24,10,31,14.80
2017,05,24,10,32,14.80
2017,05,24,10,33,14.90
2017,05,24,10,34,15.00
2017,05,24,10,35,15.10
2017,05,24,10,36,15.10
2017,05,24,10,37,15.20
2017,05,24,10,38,15.30
2017,05,24,10,39,15.30
2017,05,24,10,40,15.40
2017,05,24,10,41,15.40
2017,05,24,10,42,15.40
2017,05,24,10,43,15.30
2017,05,24,10,44,15.20
2017,05,24,10,45,15.20
2017,05,24,10,46,15.20
2017,05,24,10,47,15.20
2017,05,24,10,48,15.20
2017,05,24,10,49,15.20
2017,05,24,10,50,15.20
2017,05,24,10,51,15.10
2017,05,24,10,52,15.20
2017,05,24,10,53,15.10
2017,05,24,10,54,15.10
2017,05,24,10,55,15.20
2017,05,24,10,56,15.20
2017,05,24,10,57,15.30
2017,05,24,10,58,15.30
2017,05,24,10,59,15.30
2017,05,24,11,00,15.30
2017,05,24,11,01,15.30
2017,05,24,11,02,15.30
2017,05,24,11,03,15.20
2017,05,24,11,04,15.20
2017,05,24,11,05,15.10
2017,05,24,11,06,15.10
2017,05,24,11,07,15.00
2017,05,24,11,08,15.00
2017,05,24,11,09,14.90
2017,05,24,11,10,14.90
2017,05,24,11,11,14.90
2017,05,24,11,12,14.90
2017,05,24,11,13,15.00
2017,05,24,11,14,15.00
2017,05,24,11,15,15.00
2017,05,24,11,16,15.00
2017,05,24,11,17,15.10
2017,05,24,11,18,15.10
2017,05,24,11,19,15.20
2017,05,24,11,20,15.30
2017,05,24,11,21,15.30
2017,05,24,11,22,15.40
2017,05,24,11,23,15.40
2017,05,24,11,24,15.40
2017,05,24,11,25,15.40
2017,05,24,11,26,15.50
2017,05,24,11,27,15.60
2017,05,24,11,28,15.60
2017,05,24,11,29,15.70
2017,05,24,11,30,15.70
2017,05,24,11,31,15.60
2017,05,24,11,32,15.50
2017,05,24,11,33,15.50
2017,05,24,11,34,15.50
2017,05,24,11,35,15.40
2017,05,24,11,36,15.40
2017,05,24,11,37,15.40
2017,05,24,11,38,15.40
2017,05,24,11,39,15.50
2017,05,24,11,40,15.60
2017,05,24,11,41,15.70
2017,05,24,11,42,15.60
2017,05,24,11,43,15.70
2017,05,24,11,44,15.70
2017,05,24,11,45,15.70
2017,05,24,11,46,15.60
2017,05,24,11,47,15.70
2017,05,24,11,48,15.60
2017,05,24,11,49,15.60
2017,05,24,11,50,15.60
2017,05,24,11,51,15.60
2017,05,24,11,52,15.60
2017,05,24,11,53,15.60
2017,05,24,11,54,15.70
2017,05,24,11,55,15.70
2017,05,24,11,56,15.80
2017,05,24,11,57,15.80
2017,05,24,11,58,15.90
2017,05,24,11,59,15.90
2017,05,24,12,00,16.00
2017,05,24,12,01,16.00
2017,05,24,12,02,16.00
2017,05,24,12,03,16.00
2017,05,24,12,04,16.00
2017,05,24,12,05,16.10
2017,05,24,12,06,16.00
2017,05,24,12,07,16.00
2017,05,24,12,08,16.00
2017,05,24,12,09,16.10
2017,05,24,12,10,16.10
2017,05,24,12,11,16.10
2017,05,24,12,12,16.00
2017,05,24,12,13,16.00
2017,05,24,12,14,16.00
2017,05,24,12,15,15.90
2017,05,24,12,16,15.90
2017,05,24,12,17,15.90
2017,05,24,12,18,15.90
2017,05,24,12,19,16.00
2017,05,24,12,20,16.10
2017,05,24,12,21,16.20
2017,05,24,12,22,16.20
2017,05,24,12,23,16.10
2017,05,24,12,24,16.00
2017,05,24,12,25,16.00
2017,05,24,12,26,16.10
2017,05,24,12,27,16.10
2017,05,24,12,28,16.20
2017,05,24,12,29,16.20
2017,05,24,12,30,16.30
2017,05,24,12,31,16.30
2017,05,24,12,32,16.20
2017,05,24,12,33,16.20
2017,05,24,12,34,16.10
2017,05,24,12,35,16.10
2017,05,24,12,36,16.10
2017,05,24,12,37,16.10
2017,05,24,12,38,16.20
2017,05,24,12,39,16.20
2017,05,24,12,40,16.20
2017,05,24,12,41,16.20
2017,05,24,12,42,16.30
2017,05,24,12,43,16.30
2017,05,24,12,44,16.40
2017,05,24,12,45,16.50
2017,05,24,12,46,16.60
2017,05,24,12,47,16.60
2017,05,24,12,48,16.60
2017,05,24,12,49,16.60
2017,05,24,12,50,16.60
2017,05,24,12,51,16.70
2017,05,24,12,52,16.70
2017,05,24,12,53,16.70
2017,05,24,12,54,16.60
2017,05,24,12,55,16.50
2017,05,24,12,56,16.40
2017,05,24,12,57,16.30
2017,05,24,12,58,16.30
2017,05,24,12,59,16.30
2017,05,24,13,00,16.30
2017,05,24,13,01,16.30
2017,05,24,13,02,16.20
2017,05,24,13,03,16.20
2017,05,24,13,04,16.10
2017,05,24,13,05,16.00
2017,05,24,13,06,16.00
2017,05,24,13,07,16.00
2017,05,24,13,08,16.00
2017,05,24,13,09,16.10
2017,05,24,13,10,16.10
2017,05,24,13,11,16.10
2017,05,24,13,12,16.10
2017,05,24,13,13,16.00
2017,05,24,13,14,15.90
2017,05,24,13,15,15.90
2017,05,24,13,16,15.80
2017,05,24,13,17,15.80
2017,05,24,13,18,15.80
2017,05,24,13,19,15.80
2017,05,24,13,20,15.70
2017,05,24,13,21,15.70
2017,05,24,13,22,15.60
2017,05,24,13,23,15.50
2017,05,24,13,24,15.40
2017,05,24,13,25,15.40
2017,05,24,13,26,15.50
2017,05,24,13,27,15.60
2017,05,24,13,28,15.60
2017,05,24,13,29,15.60
2017,05,24,13,30,15.70
2017,05,24,13,31,15.70
2017,05,24,13,32,15.80
2017,05,24,13,33,15.90
2017,05,24,13,34,15.90
2017,05,24,13,35,15.90
2017,05,24,13,36,15.90
2017,05,24,13,37,15.90
2017,05,24,13,38,15.90
2017,05,24,13,39,15.90
2017,05,24,13,40,16.00
2017,05,24,13,41,16.00
2017,05,24,13,42,16.00
2017,05,24,13,43,16.00
2017,05,24,13,44,16.00
2017,05,24,13,45,16.00
2017,05,24,13,46,16.00
2017,05,24,13,47,16.10
2017,05,24,13,48,16.10
2017,05,24,13,49,16.10
2017,05,24,13,50,16.10
2017,05,24,13,51,16.10
2017,05,24,13,52,16.20
2017,05,24,13,53,16.20
2017,05,24,13,54,16.20
2017,05,24,13,55,16.30
2017,05,24,13,56,16.30
2017,05,24,13,57,16.30
2017,05,24,13,58,16.30
2017,05,24,13,59,16.30
2017,05,24,14,00,16.30
2017,05,24,14,01,16.30
2017,05,24,14,02,16.30
2017,05,24,14,03,16.30
2017,05,24,14,04,16.40
2017,05,24,14,05,16.40
2017,05,24,14,06,16.50
2017,05,24,14,07,16.50
2017,05,24,14,08,16.50
2017,05,24,14,09,16.60
2017,05,24,14,10,16.60
2017,05,24,14,11,16.50
2017,05,24,14,12,16.50
2017,05,24,14,13,16.40
2017,05,24,14,14,16.40
2017,05,24,14,15,16.40
2017,05,24,14,16,16.40
2017,05,24,14,17,16.40
2017,05,24,14,18,16.30
2017,05,24,14,19,16.30
2017,05,24,14,20,16.20
2017,05,24,14,21,16.20
2017,05,24,14,22,16.20
2017,05,24,14,23,16.20
2017,05,24,14,24,16.30
2017,05,24,14,25,16.20
2017,05,24,14,26,16.20
2017,05,24,14,27,16.10
2017,05,24,14,28,16.10
2017,05,24,14,29,16.10
2017,05,24,14,30,16.00
2017,05,24,14,31,16.00
2017,05,24,14,32,15.90
2017,05,24,14,33,15.90
2017,05,24,14,34,15.90
2017,05,24,14,35,15.90
2017,05,24,14,36,16.00
2017,05,24,14,37,16.00
2017,05,24,14,38,16.10
2017,05,24,14,39,16.10
2017,05,24,14,40,16.10
2017,05,24,14,41,16.10
2017,05,24,14,42,16.10
2017,05,24,14,43,16.10
2017,05,24,14,44,16.10
2017,05,24,14,45,16.10
2017,05,24,14,46,16.10
2017,05,24,14,47,16.00
2017,05,24,14,48,16.00
2017,05,24,14,49,15.90
2017,05,24,14,50,15.90
2017,05,24,14,51,15.90
2017,05,24,14,52,15.80
2017,05,24,14,53,15.80
2017,05,24,14,54,15.80
2017,05,24,14,55,15.80
2017,05,24,14,56,15.80
2017,05,24,14,57,15.90
2017,05,24,14,58,16.00
2017,05,24,14,59,16.00
2017,05,24,15,00,16.10
2017,05,24,15,01,16.20
2017,05,24,15,02,16.20
2017,05,24,15,03,16.20
2017,05,24,15,04,16.20
2017,05,24,15,05,16.20
2017,05,24,15,06,16.20
2017,05,24,15,07,16.20
2017,05,24,15,08,16.20
2017,05,24,15,09,16.20
2017,05,24,15,10,16.20
2017,05,24,15,11,16.30
2017,05,24,15,12,16.30
2017,05,24,15,13,16.30
2017,05,24,15,14,16.30
2017,05,24,15,15,16.30
2017,05,24,15,16,16.30
2017,05,24,15,17,16.40
2017,05,24,15,18,16.40
2017,05,24,15,19,16.40
2017,05,24,15,20,16.40
2017,05,24,15,21,16.40
2017,05,24,15,22,16.30
2017,05,24,15,23,16.30
2017,05,24,15,24,16.30
2017,05,24,15,25,16.30
2017,05,24,15,26,16.30
2017,05,24,15,27,16.30
2017,05,24,15,28,16.30
2017,05,24,15,29,16.20
2017,05,24,15,30,16.20
2017,05,24,15,31,16.30
2017,05,24,15,32,16.30
2017,05,24,15,33,16.40
2017,05,24,15,34,16.40
2017,05,24,15,35,16.50
2017,05,24,15,36,16.50
2017,05,24,15,37,16.50
2017,05,24,15,38,16.50
2017,05,24,15,39,16.50
2017,05,24,15,40,16.50
2017,05,24,15,41,16.60
2017,05,24,15,42,16.60
2017,05,24,15,43,16.50
2017,05,24,15,44,16.50
2017,05,24,15,45,16.50
2017,05,24,15,46,16.40
2017,05,24,15,47,16.40
2017,05,24,15,48,16.40
2017,05,24,15,49,16.40
2017,05,24,15,50,16.40
2017,05,24,15,51,16.40
2017,05,24,15,52,16.40
2017,05,24,15,53,16.40
2017,05,24,15,54,16.40
2017,05,24,15,55,16.40
2017,05,24,15,56,16.40
2017,05,24,15,57,16.40
2017,05,24,15,58,16.40
2017,05,24,15,59,16.40
2017,05,24,16,00,16.40
2017,05,24,16,01,16.40
2017,05,24,16,02,16.40
2017,05,24,16,03,16.40
2017,05,24,16,04,16.30
2017,05,24,16,05,16.20
2017,05,24,16,06,16.20
2017,05,24,16,07,16.20
2017,05,24,16,08,16.20
2017,05,24,16,09,16.30
2017,05,24,16,10,16.30
2017,05,24,16,11,16.40
2017,05,24,16,12,16.40
2017,05,24,16,13,16.50
2017,05,24,16,14,16.60
2017,05,24,16,15,16.70
2017,05,24,16,16,16.80
2017,05,24,16,17,16.80
2017,05,24,16,18,16.90
2017,05,24,16,19,16.90
2017,05,24,16,20,16.90
2017,05,24,16,21,16.90
2017,05,24,16,22,16.90
2017,05,24,16,23,16.90
2017,05,24,16,24,16.90
2017,05,24,16,25,16.90
2017,05,24,16,26,16.80
2017,05,24,16,27,16.80
2017,05,24,16,28,16.80
2017,05,24,16,29,16.80
2017,05,24,16,30,16.80
2017,05,24,16,31,16.70
2017,05,24,16,32,16.70
2017,05,24,16,33,16.70
2017,05,24,16,34,16.70
2017,05,24,16,35,16.60
2017,05,24,16,36,16.50
2017,05,24,16,37,16.40
2017,05,24,16,38,16.40
2017,05,24,16,39,16.40
2017,05,24,16,40,16.30
2017,05,24,16,41,16.40
2017,05,24,16,42,16.40
2017,05,24,16,43,16.40
2017,05,24,16,44,16.40
2017,05,24,16,45,16.50
2017,05,24,16,46,16.50
2017,05,24,16,47,16.60
2017,05,24,16,48,16.60
2017,05,24,16,49,16.70
2017,05,24,16,50,16.80
2017,05,24,16,51,16.80
2017,05,24,16,52,16.90
2017,05,24,16,53,16.90
2017,05,24,16,54,16.90
2017,05,24,16,55,16.80
2017,05,24,16,56,16.80
2017,05,24,16,57,16.70
2017,05,24,16,58,16.70
2017,05,24,16,59,16.60
2017,05,24,17,00,16.60
2017,05,24,17,01,16.70
2017,05,24,17,02,16.70
2017,05,24,17,03,16.70
2017,05,24,17,04,16.80
2017,05,24,17,05,16.80
2017,05,24,17,06,16.80
2017,05,24,17,07,16.80
2017,05,24,17,08,16.90
2017,05,24,17,09,16.90
2017,05,24,17,10,16.90
2017,05,24,17,11,16.90
2017,05,24,17,12,16.90
2017,05,24,17,13,16.90
2017,05,24,17,14,16.80
2017,05,24,17,15,16.80
2017,05,24,17,16,16.80
2017,05,24,17,17,16.80
2017,05,24,17,18,16.80
2017,05,24,17,19,16.80
2017,05,24,17,20,16.80
2017,05,24,17,21,16.80
2017,05,24,17,22,16.80
2017,05,24,17,23,16.80
2017,05,24,17,24,16.80
2017,05,24,17,25,16.80
2017,05,24,17,26,16.80
2017,05,24,17,27,16.90
2017,05,24,17,28,16.90
2017,05,24,17,29,16.90
2017,05,24,17,30,16.90
2017,05,24,17,31,16.90
2017,05,24,17,32,16.90
2017,05,24,17,33,16.90
2017,05,24,17,34,16.80
2017,05,24,17,35,16.80
2017,05,24,17,36,16.80
2017,05,24,17,37,16.80
2017,05,24,17,38,16.80
2017,05,24,17,39,16.80
2017,05,24,17,40,16.80
2017,05,24,17,41,16.80
2017,05,24,17,42,16.80